Location: Izdebno
(52.6670°N, 16.2170°E)
Time: 03:12:53
(UTC+02:00)

Transit 2A - Pass Details

Date: 25 February 2024
Orbit: 596 x 956 km, 66.7° (Epoch: 21 April)

Event Time Altitude Azimuth Distance (km) Brightness Sun altitude
Rises 20:48:00 0° 235° (SW) 2,843 9.3 -30.6°
Reaches altitude 10° 20:50:18 10° 241° (WSW) 1,935 8.4 -30.9°
Enters shadow 20:51:38 19° 248° (WSW) 1,438 7.8 -31.1°
Maximum altitude 20:54:29 49° 317° (NW) 782 - -31.5°
Drops below altitude 10° 20:58:47 10° 33° (NNE) 1,990 - -32.1°
Sets 21:01:10 0° 39° (NE) 2,934 - -32.4°
